Content
SEND FEEDBACK

Daily
Averages
Monthly
Summary
Mexico

CANCUN, QUINTANA ROO


Home > North America > Mexico > Quintana Roo
Elevation: 9 meters     Latitude: 21 09N     Longitude: 086 49W

WEATHER
 
SELECT A DAY
Number of Records: 163,723;   Date Range: 1/1/95 - 7/28/14
 
SHARE

PRINT THIS DATA

[ ← Previous Day ]
WEATHER ALMANAC - 20 MARCH, 2013
[ Next Day → ]
[ °F ]   °C
Weather ElementAverageHighLow
Temperature26.2 °C29 °C (12:51 pm)24 °C (3:52 am)
Dewpoint21.8 °C22 °C (1:40 am)21 °C (11:44 am)
Humidity77.1 %89 % (3:52 am)62 % (1:46 pm)
Barometer1012.2 hPa1013.9 hPa (8:46 am)1010.2 hPa (3:42 pm)
Wind Speed16.6 km/h31.5 km/h (11:44 am)
Weather ElementAverage
Visibility11.3 km
Wind DirectionESE (128.7 °)

Weather ElementTotal
Precipitation---
Cooling Degree Days8.2 (Base 18.3)
Growing Degree Days16.5 (Base 10)
Averaged from 23 records on 20 March, 2013
WEATHER CONDITIONS BREAKOUT
WIND DIRECTION BREAKOUT
WEATHER BY HOUR - 20 MARCH, 2013
[ °F ]   °C
Local TimeTemperatureDewpointHumidityBarometerVisibilityWind DirectionWind SpeedGust SpeedPrecipitationEventsConditions
1:40 AM25 °C22 °C83 %1012.2 hPa11.3 kmSE (130°)13 km/hScattered Clouds
2:50 AM25 °C22 °C83 %1011.9 hPa11.3 kmSE (140°)11.1 km/hScattered Clouds
3:52 AM24 °C22 °C89 %1011.5 hPa11.3 kmSE (130°)13 km/hScattered Clouds
4:44 AM24 °C22 °C89 %1012.2 hPa11.3 kmESE (120°)7.4 km/hScattered Clouds
5:52 AM24 °C22 °C89 %1012.9 hPa11.3 kmESE (110°)11.1 km/hMostly Cloudy
6:44 AM26 °C22 °C78 %1012.9 hPa11.3 kmESE (110°)11.1 km/hScattered Clouds
7:40 AM27 °C22 °C74 %1013.5 hPa11.3 kmSE (130°)22.2 km/hScattered Clouds
8:46 AM27 °C22 °C74 %1013.9 hPa11.3 kmESE (120°)20.4 km/hMostly Cloudy
9:40 AM28 °C22 °C70 %1013.5 hPa11.3 kmESE (120°)18.5 km/hMostly Cloudy
10:46 AM28 °C22 °C70 %1013.5 hPa11.3 kmSE (140°)25.9 km/hMostly Cloudy
11:44 AM28 °C21 °C66 %1012.9 hPa11.3 kmSouth (170°)31.5 km/hMostly Cloudy
12:51 PM29 °C22 °C66 %1011.9 hPa11.3 kmSE (130°)27.8 km/hScattered Clouds
1:46 PM29 °C21 °C62 %1011.2 hPa11.3 kmSE (140°)14.8 km/hPartly Cloudy
2:45 PM29 °C21 °C62 %1010.8 hPa11.3 kmSE (130°)22.2 km/hScattered Clouds
3:42 PM28 °C21 °C66 %1010.2 hPa11.3 kmSE (140°)27.8 km/hScattered Clouds
4:43 PM27 °C21 °C70 %1010.8 hPa11.3 kmSE (130°)20.4 km/hScattered Clouds
5:44 PM26 °C22 °C78 %1010.8 hPa11.3 kmSSE (150°)18.5 km/hMostly Cloudy
6:42 PM25 °C22 °C83 %1010.8 hPa11.3 kmSE (140°)16.7 km/hMostly Cloudy
7:43 PM25 °C22 °C83 %1011.2 hPa11.3 kmSE (140°)14.8 km/hScattered Clouds
8:43 PM25 °C22 °C83 %1012.2 hPa11.3 kmEast (100°)5.6 km/hScattered Clouds
9:48 PM25 °C22 °C83 %1013.2 hPa11.3 kmESE (110°)9.3 km/hScattered Clouds
10:47 PM25 °C22 °C83 %1012.9 hPa11.3 kmESE (110°)9.3 km/hScattered Clouds
11:46 PM24 °C22 °C89 %1012.2 hPa11.3 kmESE (120°)9.3 km/hScattered Clouds
Hourly data recorded from MMUN, located 0 kilometers away from Cancun, Quintana Roo







STORIES FROM OUR PARTNERS